Weather in Krym

Russia / Rostov Oblast     47°18′15″N   39°31′00″E
temp.,
°C
wind,
m/s
gust,
m/s
humid.,
%
clouds,
%
prec.,
mm/h
press.,
hPa
HPBL,
m
12 may, wed
wed1200:00+8sse6119274 0.1 1015498
03:00+8se61088100 0.1 1016679
06:00+8se71392100 0.2 1017775
09:00+9ese61085100 0.4 1017682
12:00+12ese577325 0.1 1017859
15:00+14se5770100 0.6 10161038
18:00+12e228278 0.3 101525
21:00+13e388398 0.3 1014144
13 may, thu
thu1300:00+11e379053 0.0 1014126
03:00+10e22905 0.0 101422
06:00+11e36895 0.0 1014129
09:00+18se35685 0.0 1014496
12:00+22ese34535 0.0 10141136
15:00+23ese4450100 0.0 10131280
18:00+22ese3667100 0.0 1013173
21:00+18e3484100 0.0 101363
14 may, fri
fri1400:00+16e49870 0.0 1013156
03:00+14e410800 0.0 1012172
06:00+15e412790 0.0 1012239
09:00+22ese6960100 0.0 1012470
12:00+26ese685143 0.0 1011754
15:00+28ese55475 0.0 1011988
18:00+26ese47630 0.0 1010296
21:00+20ese22864 0.0 101021
15 may, sat
sat1500:00+19e22891 0.0 101024
03:00+17ese3391100 0.0 101047
06:00+18nne22900 0.0 101156
09:00+23ene22705 0.0 1011427
12:00+27wsw3256100 0.0 10121099
15:00+25wsw44499 0.0 1012417
18:00+23wsw236034 0.0 1012151
21:00+18w227223 0.0 101215
16 may, sun
sun1600:00+18nne117995 0.0 101111
03:00+18nne22743 0.0 101118
06:00+18ene35815 0.0 1011102
09:00+23ene46645 0.0 1010493
12:00+26e56495 0.0 1009804
15:00+27e810455 0.0 10071215
18:00+25e51150100 0.0 1005400
21:00+21ene48697 0.0 1005144